Cloud_Cover
0 0 0 0 5 5 2 5 5 2 0 0 0 0 0 0 2 5 3 0 0 1 8 5 5 1 5 28 100 100 100 62 5 18 5 5 5 35 40 5 30 5 13 1
0 0 0 0 3 0 0 5 12 0 0 0 0 0 0 0 0 0 2 0 0 0 4 14 41 29 5 9 95 42 57 99 100 62 54 6 5 30 35 64 72 89 11 4
0 0 0 0 0 0 0 5 98 5 0 0 0 0 1 0 0 0 0 0 1 25 0 1 91 6 12 5 5 7 10 33 28 70 91 55 48 62 100 100 100 100 100 21
0 0 0 0 0 0 0 5 1 2 2 5 0 67 4 4 3 0 0 0 0 8 5 0 3 3 11 4 5 5 5 4 5 5 6 46 82 94 100 100 100 100 99 100
0 0 0 0 0 0 0 4 0 3 0 5 3 1 95 0 0 4 0 0 6 5 4 16 4 0 0 10 12 5 5 5 0 0 5 5 62 64 37 100 100 100 93 100
0 0 0 0 0 0 0 0 0 0 0 5 5 4 5 99 3 0 0 0 18 56 4 5 0 3 10 9 2 0 0 0 0 0 0 0 3 5 18 25 100 100 23 10
0 0 0 0 0 0 0 0 0 0 5 5 5 0 5 11 4 0 1 0 0 5 5 5 2 0 0 8 7 0 0 0 0 0 0 0 0 0 1 6 59 14 5 5
0 0 0 0 0 0 0 0 0 0 3 41 52 0 0 1 0 0 0 0 0 5 5 5 0 0 0 70 95 81 4 4 4 0 2 0 0 0 0 4 62 59 5 5
0 0 0 0 0 0 0 0 0 0 5 8 56 5 0 0 0 0 0 0 0 0 0 5 5 0 5 68 82 100 100 60 97 86 27 21 6 18 13 0 0 0 0 2
0 0 0 0 0 0 0 0 0 0 2 5 13 5 0 1 2 5 66 0 0 0 0 3 5 5 10 100 100 100 100 100 100 100 100 81 14 76 99 34 2 0 0 8
0 0 0 0 0 0 0 0 0 1 5 5 74 48 5 0 0 4 4 0 3 3 3 5 5 5 22 100 100 100 100 100 97 100 100 100 58 45 15 12 5 22 12 34
0 0 0 0 0 0 0 0 0 0 3 2 2 8 5 2 0 0 2 0 4 7 81 56 33 86 5 100 100 100 100 100 100 100 100 100 100 99 99 19 5 7 30 40
0 0 0 0 0 0 0 0 0 0 4 5 19 2 5 1 0 0 2 5 6 100 84 5 5 6 5 68 100 100 100 100 100 100 100 100 100 100 100 100 66 7 52 72
0 0 0 0 0 0 0 0 0 0 0 2 24 4 4 1 0 1 4 24 79 100 10 5 5 48 5 100 100 99 100 100 100 100 100 100 99 88 100 100 100 100 100 62
0 2 0 0 0 0 0 0 0 0 0 9 76 17 0 1 0 0 6 98 100 95 5 1 2 5 69 100 100 85 100 100 100 100 100 100 100 100 96 100 100 100 100 96
0 2 0 0 1 0 0 0 0 0 0 5 2 0 0 0 0 0 2 96 74 22 10 0 0 51 73 55 34 100 100 100 100 100 100 100 100 100 100 100 100 100 100 100
0 3 2 4 75 0 0 0 0 0 1 1 4 3 0 0 0 0 11 11 5 5 90 33 12 88 50 6 89 100 100 100 100 97 96 100 100 100 100 100 100 100 100 100
0 0 0 1 46 4 63 5 0 4 3 2 1 0 0 0 0 0 1 91 67 10 4 0 1 11 29 1 6 52 100 100 100 100 100 100 100 100 100 100 100 100 100 100
0 0 3 4 1 3 89 64 0 0 0 1 0 0 0 0 0 56 3 98 97 74 52 2 1 2 5 0 3 4 100 100 100 100 95 99 99 100 100 100 100 100 100 100
0 0 0 5 15 4 86 39 83 0 0 0 0 0 0 0 0 1 3 2 0 4 5 5 5 0 0 4 53 5 57 100 100 100 100 100 100 100 100 100 100 100 100 100
25 4 5 57 83 98 100 5 0 0 9 1 0 0 0 0 0 0 0 0 3 12 28 2 0 0 5 28 8 21 100 100 100 100 100 100 100 100 100 100 100 100 80 46
6 85 100 87 35 94 5 0 0 1 0 0 0 0 5 0 0 16 37 31 6 38 5 3 8 51 50 29 91 74 86 97 100 100 100 100 100 100 100 100 99 100 100 97
9 9 87 99 88 14 5 0 0 0 0 71 5 59 1 0 0 30 100 98 100 16 96 93 13 86 100 63 41 92 100 100 100 100 100 100 100 100 98 98 64 100 100 99
3 2 5 24 31 2 5 0 0 0 99 100 92 5 5 5 5 1 61 88 98 98 34 24 100 100 87 59 98 100 93 100 100 100 100 100 100 100 100 100 100 100 100 100
17 0 2 4 4 5 2 0 0 1 95 43 84 5 5 6 5 0 26 100 100 100 100 71 97 98 100 99 93 73 100 90 100 100 100 100 100 100 100 100 100 96 17 23
0 4 17 96 79 0 0 0 0 0 52 42 5 5 5 5 5 2 42 98 94 86 84 100 100 100 100 100 100 100 100 92 100 100 100 100 100 100 100 100 90 54 40 18